Change the Weather History Date:

Thursday, December 12, 2013

  Actual Average (KLOT) Record (KLOT)
Temperature  
Mean Temperature 8 °F 28 °F  
Max Temperature 23 °F 36 °F 50 °F (2006)
Min Temperature -7 °F 21 °F -9 °F (2013)
Degree Days  
Heating Degree Days 57 37  
Month to date heating degree days 417  
Since 1 July heating degree days 1636  
Cooling Degree Days 0 0  
Month to date cooling degree days 0  
Year to date cooling degree days 862  
Moisture  
Dew Point 0 °F    
Average Humidity 65    
Maximum Humidity 81    
Minimum Humidity 52    
Precipitation  
Precipitation 0.00 in 0.07 in 0.20 in (2001)
Month to date precipitation 0.90  
Year to date precipitation 38.72  
Snow  
Snow 0.00 in 0.30 in 1.00 in (2010)
Month to date snowfall 2.9  
Since 1 July snowfall 3.8  
Snow Depth -    
Sea Level Pressure  
Sea Level Pressure 30.37 in    
Wind  
Wind Speed 7 mph (SW)    
Max Wind Speed 17 mph    
Max Gust Speed 21 mph    
Visibility 10 miles    
Events      
T = Trace of Precipitation, MM = Missing Value Source: NWS Daily Summary

Daily Weather History Graph

Daily Weather History Graph

Search for Another Location

Airport or City:

Trip Planner

Search our weather history database for the weather conditions in past years. The results will help you decide how hot, cold, wet, or windy it might be!

Date:

Astronomy

Dec. 12, 2013 Rise Set
Actual Time 7:10 AM CST 4:24 PM CST
Civil Twilight 6:39 AM CST 4:55 PM CST
Nautical Twilight 6:04 AM CST 5:30 PM CST
Astronomical Twilight 5:31 AM CST 6:04 PM CST
Moon 1:33 PM CST (12/12) 2:30 AM CST (12/12)
Length of Visible Light 10h 16m
Length of Day
9h 13m
Waxing Gibbous, 80% of the Moon is Illuminated
Dec 12
Waxing Gibbous
Dec 17
Full
Dec 25
Last Quarter
Jan 1
New
Jan 7
First Quarter

Hourly Weather History & Observations

Time (CST) Temp. Windchill Dew Point Humidity Pressure Visibility Wind Dir Wind Speed Gust Speed Precip Events Conditions
12:15 AM -3.5 °F -15.7 °F -12.1 °F 67% 30.56 in 10.0 mi WSW 5.8 mph - N/A   Clear
12:35 AM -3.3 °F -15.4 °F -12.3 °F 65% 30.55 in 10.0 mi West 5.8 mph - N/A   Clear
12:55 AM -4.5 °F -15.2 °F -13.0 °F 67% 30.55 in 10.0 mi West 4.6 mph - N/A   Clear
1:15 AM -5.1 °F -15.8 °F -13.2 °F 68% 30.54 in 10.0 mi SW 4.6 mph - N/A   Scattered Clouds
1:35 AM -6.2 °F -17.1 °F -13.7 °F 70% 30.55 in 10.0 mi WSW 4.6 mph - N/A   Scattered Clouds
1:55 AM -7.1 °F -18.1 °F -14.4 °F 70% 30.55 in 10.0 mi WSW 4.6 mph - N/A   Clear
2:15 AM -4.9 °F -20.1 °F -12.5 °F 70% 30.54 in 10.0 mi West 8.1 mph - N/A   Clear
2:35 AM -4.9 °F -17.4 °F -13.0 °F 68% 30.54 in 10.0 mi WSW 5.8 mph - N/A   Mostly Cloudy
2:55 AM -4.2 °F -14.8 °F -11.7 °F 70% 30.54 in 10.0 mi SW 4.6 mph - N/A   Mostly Cloudy
3:15 AM -5.8 °F -18.4 °F -12.8 °F 72% 30.52 in 10.0 mi SW 5.8 mph - N/A   Scattered Clouds
3:35 AM -2.4 °F -12.7 °F -9.4 °F 72% 30.51 in 10.0 mi SW 4.6 mph - N/A   Scattered Clouds
3:55 AM -1.3 °F -13.1 °F -8.9 °F 70% 30.51 in 10.0 mi SW 5.8 mph - N/A   Mostly Cloudy
4:15 AM -2.2 °F -12.5 °F -10.1 °F 69% 30.51 in 10.0 mi SW 4.6 mph - N/A   Scattered Clouds
4:35 AM -3.1 °F - -10.1 °F 72% 30.50 in 10.0 mi Calm Calm - N/A   Clear
4:55 AM -4.0 °F -16.3 °F -11.2 °F 71% 30.50 in 10.0 mi SSW 5.8 mph - N/A   Clear
5:15 AM -3.8 °F -14.4 °F -10.5 °F 73% 30.49 in 10.0 mi SSW 4.6 mph - N/A   Clear
5:35 AM -5.1 °F -15.8 °F -12.5 °F 70% 30.48 in 10.0 mi South 4.6 mph - N/A   Scattered Clouds
5:55 AM -5.1 °F -13.6 °F -11.2 °F 75% 30.47 in 10.0 mi South 3.5 mph - N/A   Scattered Clouds
6:15 AM -5.1 °F -15.8 °F -11.4 °F 74% 30.46 in 10.0 mi SSW 4.6 mph - N/A   Mostly Cloudy
6:35 AM -2.0 °F -13.9 °F -8.9 °F 73% 30.47 in 10.0 mi SW 5.8 mph - N/A   Mostly Cloudy
6:55 AM 0.5 °F -14.6 °F -7.6 °F 69% 30.45 in 10.0 mi SSW 9.2 mph - N/A   Mostly Cloudy
7:15 AM 2.7 °F -12.9 °F -6.7 °F 65% 30.44 in 10.0 mi SSW 10.4 mph - N/A   Mostly Cloudy
7:35 AM 2.7 °F -13.8 °F -6.9 °F 64% 30.43 in 10.0 mi South 11.5 mph - N/A   Mostly Cloudy
7:55 AM 3.0 °F -11.5 °F -6.5 °F 65% 30.42 in 10.0 mi South 9.2 mph - N/A   Scattered Clouds
8:15 AM 5.7 °F -9.9 °F -5.8 °F 59% 30.41 in 10.0 mi SSW 11.5 mph - N/A   Clear
8:35 AM 7.2 °F -10.2 °F -5.1 °F 57% 30.41 in 10.0 mi SSW 15.0 mph - N/A   Clear
8:55 AM 8.4 °F -9.2 °F -4.0 °F 57% 30.40 in 10.0 mi SSW 16.1 mph - N/A   Clear
9:15 AM 9.3 °F -8.6 °F -3.5 °F 56% 30.40 in 10.0 mi SSW 17.3 mph - N/A   Clear
9:35 AM 10.0 °F -7.6 °F -2.2 °F 58% 30.40 in 10.0 mi SSW 17.3 mph - N/A   Clear
9:55 AM 11.3 °F -4.3 °F -0.4 °F 59% 30.40 in 10.0 mi SW 13.8 mph - N/A   Clear
10:15 AM 13.1 °F 0.1 °F 1.0 °F 59% 30.39 in 10.0 mi SW 10.4 mph - N/A   Clear
10:35 AM 14.9 °F 0.3 °F 1.9 °F 57% 30.39 in 10.0 mi WSW 13.8 mph 20.7 mph N/A   Clear
10:55 AM 16.2 °F 3.2 °F 1.4 °F 52% 30.39 in 10.0 mi WSW 11.5 mph - N/A   Clear
11:15 AM 17.2 °F 3.3 °F 3.2 °F 54% 30.39 in 10.0 mi WSW 13.8 mph - N/A   Clear
11:35 AM 18.3 °F 4.6 °F 4.5 °F 55% 30.37 in 10.0 mi WSW 13.8 mph - N/A   Clear
11:55 AM 19.0 °F 5.6 °F 4.6 °F 54% 30.38 in 10.0 mi WSW 13.8 mph - N/A   Clear
12:15 PM 19.9 °F 7.9 °F 5.4 °F 53% 30.35 in 10.0 mi WSW 11.5 mph 19.6 mph N/A   Clear
12:35 PM 20.5 °F 8.0 °F 5.4 °F 52% 30.34 in 10.0 mi WSW 12.7 mph - N/A   Clear
12:55 PM 21.0 °F 8.6 °F 6.4 °F 53% 30.33 in 10.0 mi WSW 12.7 mph - N/A   Clear
1:15 PM 21.7 °F 9.0 °F 7.5 °F 54% 30.33 in 10.0 mi WSW 13.8 mph 18.4 mph N/A   Clear
1:35 PM 22.5 °F 10.5 °F 8.8 °F 56% 30.33 in 10.0 mi WSW 12.7 mph - N/A   Clear
1:55 PM 22.1 °F 10.0 °F 7.7 °F 54% 30.32 in 10.0 mi WSW 12.7 mph - N/A   Scattered Clouds
2:15 PM 22.8 °F 12.2 °F 8.8 °F 55% 30.32 in 10.0 mi WSW 10.4 mph - N/A   Mostly Cloudy
2:35 PM 22.8 °F 12.9 °F 8.8 °F 55% 30.31 in 10.0 mi West 9.2 mph - N/A   Overcast
2:55 PM 22.8 °F 14.5 °F 9.7 °F 57% 30.31 in 10.0 mi West 6.9 mph - N/A   Overcast
3:15 PM 23.4 °F 15.2 °F 9.1 °F 55% 30.30 in 10.0 mi West 6.9 mph - N/A   Overcast
3:35 PM 23.0 °F 14.7 °F 9.3 °F 56% 30.30 in 10.0 mi West 6.9 mph - N/A   Scattered Clouds
3:55 PM 22.8 °F 12.9 °F 10.2 °F 59% 30.30 in 10.0 mi WSW 9.2 mph - N/A   Scattered Clouds
4:15 PM 21.7 °F 14.3 °F 10.0 °F 61% 30.30 in 10.0 mi WSW 5.8 mph - N/A   Clear
4:35 PM 20.1 °F 12.3 °F 9.5 °F 63% 30.30 in 10.0 mi West 5.8 mph - N/A   Clear
4:55 PM 19.0 °F 12.3 °F 8.6 °F 64% 30.29 in 10.0 mi WSW 4.6 mph - N/A   Clear
5:15 PM 17.8 °F 12.5 °F 8.4 °F 67% 30.29 in 10.0 mi SW 3.5 mph - N/A   Clear
5:35 PM 18.9 °F 9.8 °F 10.0 °F 69% 30.29 in 7.0 mi WSW 6.9 mph - N/A   Clear
5:55 PM 18.3 °F 11.5 °F 8.8 °F 66% 30.28 in 10.0 mi SW 4.6 mph - N/A   Clear
6:15 PM 18.3 °F 11.5 °F 9.1 °F 67% 30.27 in 10.0 mi SW 4.6 mph - N/A   Clear
6:35 PM 17.6 °F 10.7 °F 8.6 °F 68% 30.26 in 10.0 mi WSW 4.6 mph - N/A   Clear
6:55 PM 18.0 °F 12.7 °F 8.8 °F 67% 30.27 in 10.0 mi West 3.5 mph - N/A   Clear
7:15 PM 17.4 °F 10.4 °F 9.0 °F 69% 30.26 in 10.0 mi WSW 4.6 mph - N/A   Clear
7:35 PM 18.3 °F 13.1 °F 9.5 °F 68% 30.26 in 10.0 mi West 3.5 mph - N/A   Clear
7:55 PM 18.5 °F 13.3 °F 9.3 °F 67% 30.27 in 10.0 mi WNW 3.5 mph - N/A   Clear
8:15 PM 16.9 °F - 8.1 °F 68% 30.26 in 10.0 mi Calm Calm - N/A   Clear
8:35 PM 16.7 °F - 8.1 °F 69% 30.26 in 10.0 mi Calm Calm - N/A   Clear
8:55 PM 11.8 °F - 5.5 °F 76% 30.26 in 10.0 mi Calm Calm - N/A   Clear
9:15 PM 12.2 °F 6.1 °F 6.1 °F 76% 30.26 in 10.0 mi South 3.5 mph - N/A   Clear
9:35 PM 14.5 °F - 8.6 °F 77% 30.25 in 10.0 mi Calm Calm - N/A   Clear
9:55 PM 15.8 °F - 9.3 °F 76% 30.25 in 10.0 mi Calm Calm - N/A   Clear
10:15 PM 14.5 °F - 8.1 °F 75% 30.24 in 10.0 mi Calm Calm - N/A   Clear
10:35 PM 10.9 °F - 5.9 °F 80% 30.24 in 10.0 mi Calm Calm - N/A   Clear
10:55 PM 11.7 °F - 7.0 °F 81% 30.23 in 10.0 mi Calm Calm - N/A   Clear
11:15 PM 14.5 °F - 9.5 °F 80% 30.22 in 10.0 mi Calm Calm - N/A   Scattered Clouds
11:35 PM 10.2 °F 3.8 °F 4.6 °F 78% 30.21 in 10.0 mi SSW 3.5 mph - N/A   Scattered Clouds
11:55 PM 7.7 °F 1.0 °F 2.5 °F 79% 30.21 in 10.0 mi South 3.5 mph - N/A   Clear